Location: Krakow
(50.0830°N, 19.9170°E)
Time: 11:39:56
(UTC+01:00)

Injun/Solrad 3 - All Passes

Search period start: 15 March 2026 00:00
Search period end: 25 March 2026 00:00
Orbit: 871 x 985 km, 66.8° (Epoch: 14 March)

Date Brightness Start Highest point End Pass type
(mag) Time Alt. Az. Time Alt. Az. Time Alt. Az.
15 Mar - 04:18:15 10° SSE 04:23:00 26° ESE 04:27:50 10° NE visible
15 Mar - 06:03:04 10° SW 06:08:57 70° NW 06:15:02 10° NE daylight
15 Mar - 07:51:45 10° W 07:56:32 24° NNW 08:01:26 10° NNE daylight
15 Mar - 09:41:34 10° NW 09:45:19 16° N 09:49:08 10° NE daylight
15 Mar - 11:29:01 10° NNW 11:34:04 25° NNE 11:39:13 10° E daylight
15 Mar - 13:15:22 10° NW 13:21:36 74° NE 13:27:58 10° SE daylight
15 Mar - 15:02:31 10° NW 15:07:37 27° WSW 15:12:47 10° SSW daylight
16 Mar - 04:28:25 10° S 04:33:46 38° ESE 04:39:15 10° NE visible
16 Mar - 06:14:20 10° WSW 06:20:06 52° NW 06:26:03 10° NNE daylight
16 Mar - 08:03:37 10° WNW 08:08:02 21° NNW 08:12:33 10° NNE daylight
16 Mar - 09:53:04 10° NNW 09:56:57 17° N 10:00:54 10° NE daylight
16 Mar - 11:40:02 10° NNW 11:45:29 31° NNE 11:51:02 10° E daylight
16 Mar - 13:26:25 10° NW 13:32:40 83° WSW 13:39:03 10° SSE daylight
16 Mar - 15:14:14 10° WNW 15:18:20 18° WSW 15:22:29 10° SW daylight
17 Mar - 04:38:55 10° SSW 04:44:37 54° ESE 04:50:30 10° NE visible
17 Mar - 06:25:48 10° WSW 06:31:21 40° NW 06:37:04 10° NNE daylight
17 Mar - 08:15:30 10° WNW 08:19:35 18° NNW 08:23:46 10° NNE daylight
17 Mar - 10:04:23 10° NNW 10:08:33 18° NNE 10:12:47 10° ENE daylight
17 Mar - 11:51:03 10° NNW 11:56:50 39° NE 12:02:44 10° ESE daylight
17 Mar - 13:37:30 10° NW 13:43:40 60° WSW 13:49:55 10° SSE daylight
17 Mar - 15:26:45 10° W 15:28:57 12° W 15:31:11 10° WSW daylight
18 Mar - 03:06:52 10° SE 03:10:07 15° ESE 03:13:24 10° ENE visible
18 Mar - 04:49:42 10° SSW 04:55:34 77° ESE 05:01:39 10° NE visible
18 Mar - 06:37:25 10° W 06:42:40 31° NW 06:48:05 10° NNE daylight
18 Mar - 08:27:20 10° NW 08:31:12 17° N 08:35:08 10° NNE daylight
18 Mar - 10:15:35 10° NNW 10:20:07 21° NNE 10:24:44 10° ENE daylight
18 Mar - 12:02:02 10° NNW 12:08:05 50° NE 12:14:16 10° ESE daylight
18 Mar - 13:48:43 10° NW 13:54:34 43° WSW 14:00:31 10° S daylight
19 Mar - 03:16:18 10° SSE 03:20:46 23° ESE 03:25:20 10° ENE visible
19 Mar - 05:00:41 10° SW 05:06:36 78° NW 05:12:43 10° NE visible
19 Mar - 06:49:10 10° W 06:54:04 26° NNW 06:59:08 10° NNE daylight
19 Mar - 08:39:02 10° NW 08:42:48 17° N 08:46:39 10° NE daylight
19 Mar - 10:26:40 10° NNW 10:31:37 24° NNE 10:36:39 10° E daylight
19 Mar - 12:13:03 10° NNW 12:19:16 67° NE 12:25:37 10° SE daylight
19 Mar - 14:00:03 10° NW 14:05:23 30° WSW 14:10:49 10° S daylight
20 Mar - 03:26:20 10° S 03:31:31 33° ESE 03:36:50 10° NE visible
20 Mar - 05:11:54 10° SW 05:17:43 57° NW 05:23:45 10° NNE visible
20 Mar - 07:01:00 10° WNW 07:05:33 22° NNW 07:10:13 10° NNE daylight
20 Mar - 08:50:35 10° NW 08:54:26 17° N 08:58:21 10° NE daylight
20 Mar - 10:37:43 10° NNW 10:43:03 29° NNE 10:48:30 10° E daylight
20 Mar - 12:24:04 10° NW 12:30:21 89° NE 12:36:46 10° SE daylight
20 Mar - 14:11:37 10° WNW 14:16:08 21° WSW 14:20:41 10° SSW daylight
21 Mar - 03:36:44 10° S 03:42:21 48° ESE 03:48:08 10° NE visible
21 Mar - 05:23:18 10° WSW 05:28:57 43° NW 05:34:46 10° NNE daylight
21 Mar - 07:12:53 10° WNW 07:17:05 19° NNW 07:21:24 10° NNE daylight
21 Mar - 09:01:58 10° NNW 09:06:03 18° NNE 09:10:11 10° NE daylight
21 Mar - 10:48:44 10° NNW 10:54:25 36° NE 11:00:14 10° ESE daylight
21 Mar - 12:35:09 10° NW 12:41:22 67° WSW 12:47:42 10° SSE daylight
21 Mar - 14:23:45 10° WNW 14:26:48 14° WSW 14:29:51 10° SW daylight
22 Mar - 02:05:18 10° SE 02:07:56 13° E 02:10:36 10° ENE visible
22 Mar - 03:47:25 10° SSW 03:53:16 69° ESE 03:59:18 10° NE visible
22 Mar - 05:34:52 10° W 05:40:15 34° NW 05:45:47 10° NNE daylight
22 Mar - 07:24:44 10° NW 07:28:41 17° N 07:32:43 10° NNE daylight
22 Mar - 09:13:12 10° NNW 09:17:38 20° NNE 09:22:08 10° ENE daylight
22 Mar - 10:59:43 10° NNW 11:05:43 46° NE 11:11:49 10° ESE daylight
22 Mar - 12:46:20 10° NW 12:52:18 48° WSW 12:58:23 10° S daylight
23 Mar - 02:14:24 10° SSE 02:18:34 20° ESE 02:22:48 10° ENE visible
23 Mar - 03:58:21 10° SW 04:04:16 86° NW 04:10:24 10° NE visible
23 Mar - 05:46:34 10° W 05:51:37 27° NNW 05:56:49 10° NNE daylight
23 Mar - 07:36:29 10° NW 07:40:18 17° N 07:44:10 10° NE daylight
23 Mar - 09:24:20 10° NNW 09:29:09 23° NNE 09:34:03 10° ENE daylight
23 Mar - 11:10:43 10° NNW 11:16:55 61° NE 11:23:14 10° SE daylight
23 Mar - 12:57:36 10° NW 13:03:09 34° WSW 13:08:47 10° S daylight
24 Mar - 02:24:16 10° SSE 02:29:17 30° ESE 02:34:25 10° NE visible
24 Mar - 04:09:29 10° SW 04:15:22 63° NW 04:21:27 10° NNE visible
24 Mar - 05:58:23 10° WNW 06:03:05 23° NNW 06:07:53 10° NNE daylight
24 Mar - 07:48:06 10° NW 07:51:56 17° N 07:55:49 10° NE daylight
24 Mar - 09:35:23 10° NNW 09:40:37 27° NNE 09:45:56 10° E daylight
24 Mar - 11:21:45 10° NW 11:28:02 81° NE 11:34:27 10° SE daylight
24 Mar - 13:09:05 10° WNW 13:13:55 24° WSW 13:18:49 10° SSW daylight
